Regional Weather Roundup
Issued by NWS Burlington, VT

Home | Current Version | Previous Version | Text Only | Print | Product List | Glossary On
Versions: 1 2 3 4 5 6 7 8 9 10 11 12 13 14 15 16 17 18 19 20 21 22 23 24 25 26 27 28 29 30 31 32 33 34 35 36 37 38 39 40 41 42 43 44 45 46 47 48 49 50
185
ASUS41 KBTV 250130
RWRBTV
VERMONT REGIONAL WEATHER ROUNDUP
NATIONAL WEATHER SERVICE BURLINGTON VT
900 PM EDT SUN SEP 24 2017

NOTE: "FAIR" INDICATES FEW OR NO CLOUDS BELOW 12,000 FEET WITH NO
SIGNIFICANT WEATHER AND/OR OBSTRUCTIONS TO VISIBILITY.

* THESE REPORTS ARE NOT UNDER NWS QUALITY CONTROL AND/OR DO NOT
  REPORT WEATHER SUCH AS PRECIPITATION AND FOG.

VTZ001>019-250200-
_____VERMONT_____


CITY           SKY/WX    TMP DP  RH WIND       PRES   REMARKS
BURLINGTON     CLEAR     75  71  87 CALM      30.05S
MONTPELIER     CLEAR     68  67  96 CALM      30.13R
MORRISVILLE    CLEAR     67  66  97 SW3       30.09R
ST. JOHNSBURY*   N/A     72  70  93 MISG      30.06R
LYNDONVILLE*   FAIR      71  66  82 CALM      30.12R
MIDDLEBURY*    FAIR      70  68  93 CALM      30.07S
RUTLAND*       CLEAR     71  67  87 SE7       30.09R
SPRINGFIELD    CLEAR     71  66  84 CALM      30.07R
HIGHGATE*      FAIR      69  69  99 CALM      30.05R
NEWPORT*       FAIR      69  67  96 SW5       30.09S
BENNINGTON     CLEAR     68  65  90 CALM      30.08R
SUTTON*          N/A     68 N/A N/A MISG        N/A
ISLAND POND*     N/A     64 N/A N/A CALM        N/A
GALLUP MILLS*    N/A     64 N/A N/A MISG        N/A
UNION VILLAGE*   N/A     70 N/A N/A MISG        N/A
MT. MANSFIELD*   N/A     66 N/A N/A NW22        N/A

_____LAKE CHAMPLAIN_____


CITY           SKY/WX    TMP DP  RH WIND       PRES   REMARKS
BURTON ISLAND*   N/A     73  70  88 E3          N/A
COLCHESTER RF*   N/A     79  68  69 N1          N/A
DIAMOND ISL*     N/A     73  70  88 E1          N/A

$$

NYZ007-026>031-035-052-083-087-250200-
_____NORTHERN NEW YORK_____


CITY           SKY/WX    TMP DP  RH WIND       PRES   REMARKS
PLATTSBURGH    CLEAR     70  67  90 CALM      30.04S
SARANAC LAKE   CLEAR     62  62 100 CALM      30.13R
MASSENA        CLEAR     70  70 100 CALM      30.06R
OGDENSBURG*    FAIR      71  69  93 S3        30.07S
POTSDAM*       CLEAR    N/A N/A N/A SW3       30.08R
STARK FALLS*     N/A     68 N/A N/A SE1         N/A
WATERTOWN      CLEAR     72  68  87 S6        30.08S
FT DRUM        CLEAR     73  66  78 SW7       30.09S
ALBANY         CLEAR     73  68  84 CALM      30.05R
GLENS FALLS    CLEAR     69  67  93 CALM      30.05R

$$
NHZ002-005-011-250200-
_____NEW HAMPSHIRE_____


CITY           SKY/WX    TMP DP  RH WIND       PRES   REMARKS
LEBANON        CLEAR     69  67  93 CALM      30.06R
KEENE          CLEAR     70  67  90 CALM      30.06R FOG
MT WASHINGTON  FOG       57  57 100 NW21        N/A  VSB 0
PLYMOUTH       FAIR      69  66  92 CALM      30.05S
WHITEFIELD     CLEAR     68  64  87 CALM      30.09R

$$

_____REGIONAL QUEBEC LOCATIONS_____


CITY           SKY/WX    TMP DP  RH WIND       PRES   REMARKS
MONTREAL       PTCLDY    77  72  83 W7        30.02R
QUEBEC CITY    PTCLDY    66  61  82 E7        30.05R
SHERBROOKE     MOCLDY    72  70  94 S2        30.06R

_____REGIONAL ONTARIO LOCATIONS_____


CITY           SKY/WX    TMP DP  RH WIND       PRES   REMARKS
OTTAWA         PTCLDY    75  68  78 SW3       30.05S

______KEY______
VSB  - VISIBILITY IN MILES
WCI  - WIND CHILL INDEX
HX   - HEAT INDEX
$$
NNNN




USA.gov is the U.S. government's official web portal to all federal, state and local government web resources and services.